[[{"header":{"parameterUnit":"m.s-1","parameterCategory":1,"la1":30.2991,"la2":30.254,"lo1":-89.0895,"lo2":-89.0444,"dy":0.0017,"dx":0.0017,"nx":28,"ny":28,"refTime":"2025-06-15T09:00:00:Z","depth":0,"parameterNumber":2,"parameterNumberName":"U-component_of_WINDS"},"data":[0,0,0,0,0,0,0,0,0,0,0,0,0,0,0,0,0,0,0,0,0,0,0,0,0,0,0,0,0,0,0,0,0,0,0,0,0,0,0,0,0,0,0,0,0,0,0,0,0,0,0,0,0,0,0,0,0,0,2.4687,2.4688,0,2.4782,2.4783,2.4784,2.4779,2.4777,2.4776,2.4775,2.4872,2.4876,2.488,0,0,0,0,0,0,0,0,0,0,0,0,0,2.4499,2.4502,2.4687,2.4688,2.4689,2.4782,2.4783,2.4784,2.4779,2.4777,2.4776,2.4774,2.4871,2.4875,2.488,0,0,0,0,0,0,0,0,0,0,0,0,0,2.4586,2.4503,2.4687,2.4698,2.47,2.4781,2.4783,2.4785,2.4779,2.4777,2.4775,2.4773,2.4869,2.4875,2.4881,2.4957,0,0,2.4898,2.4901,0,0,0,0,0,0,0,0,2.4581,2.4593,2.4695,2.4697,2.4699,2.4766,2.4752,2.4843,2.478,2.4749,2.4775,2.4772,2.4838,2.4847,2.4869,2.4962,2.4966,2.4899,2.4902,2.4905,2.4906,0,0,0,0,0,0,0,2.4575,2.4589,2.4724,2.4696,2.4699,2.4697,2.4707,2.4769,2.4804,2.4752,2.4751,2.4763,2.4839,2.4863,2.4871,2.4968,2.4899,2.4904,2.4907,2.491,2.5125,2.5127,0,0,0,0,0,0,2.4567,2.4584,2.4721,2.4727,2.4634,2.4702,2.4714,2.4747,2.4803,2.481,2.4764,2.4762,2.4855,2.4864,2.4875,2.4966,2.4905,2.491,2.4913,2.5122,2.5125,2.5128,0,0,0,0,0,0,2.4563,2.4579,2.4717,2.4655,2.4673,2.4708,2.4745,2.475,2.4774,2.4813,2.4819,2.4783,2.4853,2.4866,2.4936,2.4969,2.4913,2.4918,2.512,2.5123,2.5126,2.515,0,0,0,0,0,0,2.4557,2.4577,2.4608,2.4656,2.4676,2.4778,2.4747,2.4753,2.4784,2.4782,2.4832,2.4838,2.4853,2.4927,2.4942,2.4976,2.4923,2.5117,2.5121,2.5125,2.5146,2.5154,2.516,0,0,0,0,0,2.455,2.4611,2.4609,2.4626,2.4715,2.478,2.4791,2.4807,2.4787,2.4817,2.4841,2.4837,2.4963,2.4935,2.4951,2.4987,2.5115,2.512,2.5125,2.5143,2.5152,2.516,0,0,0,0,0,0,2.4567,2.4618,2.4616,2.4695,2.4733,2.4779,2.4817,2.4816,2.4861,2.4857,2.4875,2.4886,2.4955,2.4978,2.4945,2.5063,2.5036,2.5045,2.5045,2.5054,2.506,2.5052,2.4927,0,0,0,0,0,2.4579,2.4628,2.467,2.4736,2.4755,2.4783,2.4812,2.482,2.486,2.4876,2.4906,2.4945,2.4994,2.5025,2.5072,2.515,2.5159,2.5183,2.519,2.5195,2.5201,2.5241,2.5251,2.5144,2.5144,2.5144,0,0,2.4606,2.464,2.467,2.474,2.477,2.4819,2.4796,2.485,2.4886,2.4885,2.4951,2.4975,2.5019,2.5092,2.5126,2.5114,2.5233,2.5201,2.5205,2.5209,2.5247,2.5257,2.5266,2.5147,2.5147,2.5146,0,0,2.4679,2.4711,2.4767,2.4798,2.4844,2.4862,2.4875,2.4921,2.4936,2.5003,2.5002,2.5045,2.5129,2.5159,2.5186,2.5268,2.5264,2.5283,2.5318,2.5356,2.5364,2.5372,2.5398,2.5408,2.529,2.529,2.529,0,2.4706,2.4781,2.4796,2.4849,2.4879,2.4879,2.4934,2.4964,2.5023,2.5042,2.5028,2.5131,2.5161,2.524,2.5259,2.5282,2.5296,2.5277,2.5362,2.537,2.5377,2.5402,2.5413,2.5291,2.5291,2.5291,2.5291,0,2.481,2.4862,2.4901,2.4957,2.4991,2.5046,2.5068,2.5101,2.5105,2.5124,2.5191,2.5227,2.528,2.53,2.5306,2.5378,2.5369,2.5358,2.5332,2.5389,2.5412,2.5423,2.5294,2.5293,2.5293,2.5292,0,0,2.4897,2.4958,2.4973,2.4996,2.5046,2.5086,2.5139,2.519,2.5216,2.5257,2.5301,2.537,2.536,2.539,2.5399,2.5433,2.5492,2.5418,2.5419,2.5428,2.5571,2.5577,2.5588,2.549,2.5493,2.5494,2.5566,0,2.4973,2.5067,2.5081,2.5164,2.521,2.521,2.5256,2.5291,2.5309,2.5351,2.5371,2.5419,2.5403,2.5421,2.5455,2.5478,2.552,2.5473,2.5529,2.5531,2.5516,2.5601,2.5608,2.5674,2.5576,2.5578,2.5579,0,2.5074,2.5116,2.5202,2.5243,2.5263,2.5304,2.535,2.539,2.5429,2.544,2.5473,2.5477,2.5531,2.5503,2.5576,2.5543,2.5567,2.5582,2.5585,2.5589,2.5557,2.5605,2.5696,2.5705,2.5594,2.5593,2.5592,0,2.5124,2.5203,2.5264,2.5284,2.5334,2.5363,2.5385,2.5422,2.545,2.5491,2.5509,2.5556,2.558,2.5616,2.5632,2.5611,2.5703,2.5677,2.5712,2.5711,2.573,2.5728,2.5824,2.5749,2.5749,2.5749,2.5749,0,2.5207,2.5259,2.5286,2.5324,2.5382,2.5397,2.5454,2.5475,2.5507,2.5548,2.5552,2.5589,2.561,2.565,2.5664,2.572,2.5732,2.5741,2.5744,2.574,2.5738,2.5754,2.5749,2.5752,2.5751,2.5751,2.575,0,2.5272,2.5293,2.5359,2.54,2.5411,2.5452,2.5487,2.5522,2.554,2.5591,2.5604,2.5632,2.568,2.57,2.5759,2.5768,2.5832,2.5832,2.5818,2.5819,2.5851,2.5847,2.5959,2.5973,2.5891,2.5892,2.5893,0,2.5322,2.5362,2.5407,2.5434,2.5456,2.55,2.5529,2.5545,2.5575,2.562,2.565,2.5697,2.5736,2.5812,2.5837,2.5881,2.5881,2.5917,2.5888,2.5882,2.5879,2.5875,2.5878,2.5922,2.5923,2.5924,2.5924,0,2.5407,2.5415,2.5456,2.55,2.5534,2.557,2.5605,2.5626,2.5648,2.5681,2.5729,2.5759,2.5818,2.5864,2.5909,2.5931,2.5931,2.5933,2.5943,2.5938,2.5927,2.5931,2.583,2.593,2.593,2.5929,2.5929,2.5929,2.5465,2.5499,2.5535,2.558,2.5607,2.5639,2.5673,2.5695,2.5735,2.5784,2.5792,2.5842,2.5878,2.5938,2.5962,2.6001,2.5992,2.6007,2.601,2.6013,2.6014,2.5923,2.601,2.601,2.601,2.601,2.6009,0,2.5548,2.557,2.5611,2.5659,2.5694,2.569,2.5728,2.5757,2.5801,2.5834,2.5872,2.5926,2.597,2.5998,2.6042,2.6068,2.6069,2.6079,2.6076,2.6081,2.6021,2.6007,2.6077,2.6077,2.6077,2.6077,2.6077,2.6077,2.5595,2.5651,2.5663,2.5732,2.5755,2.5804,2.5825,2.5854,2.588,2.594,2.5976,2.5994,2.6024,2.6071,2.611,2.6117,2.6132,2.6143,2.6149,2.6092,2.6085,2.6078,2.6065,2.6147,2.6147,2.6205,2.6206,2.6206]},{"header":{"parameterUnit":"m.s-1","parameterCategory":1,"la1":30.2991,"la2":30.254,"lo1":-89.0895,"lo2":-89.0444,"dy":0.0017,"dx":0.0017,"nx":28,"ny":28,"refTime":"2025-06-15T09:00:00:Z","depth":0,"parameterNumber":3,"parameterNumberName":"V-component_of_WINDS"},"data":[0,0,0,0,0,0,0,0,0,0,0,0,0,0,0,0,0,0,0,0,0,0,0,0,0,0,0,0,0,0,0,0,0,0,0,0,0,0,0,0,0,0,0,0,0,0,0,0,0,0,0,0,0,0,0,0,0,0,3.0323,3.0325,0,3.0502,3.0504,3.0506,3.0501,3.0498,3.0496,3.0493,3.0675,3.0682,3.0689,0,0,0,0,0,0,0,0,0,0,0,0,0,2.9977,2.9983,3.0323,3.0326,3.0328,3.0501,3.0504,3.0506,3.0501,3.0498,3.0495,3.0492,3.0673,3.0681,3.069,0,0,0,0,0,0,0,0,0,0,0,0,0,3.0138,2.9985,3.0323,3.0346,3.035,3.0501,3.0504,3.0507,3.0502,3.0498,3.0494,3.0491,3.067,3.068,3.0691,3.083,0,0,3.0723,3.0728,0,0,0,0,0,0,0,0,3.0129,3.0151,3.0341,3.0345,3.0349,3.0475,3.0448,3.0615,3.0503,3.0444,3.0493,3.0489,3.0611,3.0627,3.0668,3.0838,3.0846,3.0724,3.0731,3.0735,3.0738,0,0,0,0,0,0,0,3.0118,3.0143,3.0394,3.0343,3.0349,3.0347,3.0366,3.048,3.0546,3.0449,3.0449,3.047,3.0613,3.0658,3.0672,3.0849,3.0724,3.0733,3.074,3.0744,3.114,3.1144,0,0,0,0,0,0,3.0102,3.0134,3.0388,3.0399,3.0228,3.0356,3.0377,3.0438,3.0545,3.0558,3.0473,3.0469,3.0641,3.066,3.0679,3.0848,3.0735,3.0745,3.0751,3.1136,3.1141,3.1145,0,0,0,0,0,0,3.0095,3.0125,3.0381,3.0267,3.0299,3.0366,3.0435,3.0444,3.0489,3.0563,3.0575,3.0507,3.0639,3.0664,3.0792,3.0854,3.075,3.076,3.1131,3.1138,3.1143,3.1187,0,0,0,0,0,0,3.0085,3.0122,3.0176,3.0268,3.0305,3.0492,3.0439,3.045,3.0507,3.0504,3.0598,3.061,3.0638,3.0776,3.0803,3.0867,3.0768,3.1126,3.1134,3.1141,3.1181,3.1194,3.1206,0,0,0,0,0,3.0072,3.0182,3.0179,3.021,3.0375,3.0496,3.0517,3.0548,3.0512,3.0567,3.0614,3.0607,3.0843,3.0789,3.0819,3.0887,3.1122,3.1132,3.1141,3.1175,3.1192,3.1206,0,0,0,0,0,0,3.0096,3.0194,3.0192,3.0335,3.0407,3.0495,3.0565,3.0565,3.0648,3.0642,3.0676,3.0697,3.0825,3.0869,3.0808,3.1027,3.0978,3.0993,3.0994,3.101,3.1022,3.1009,3.0777,0,0,0,0,0,3.0118,3.0208,3.0289,3.0407,3.0443,3.0498,3.0552,3.0569,3.0645,3.0675,3.0732,3.0806,3.0896,3.0955,3.1043,3.1186,3.1206,3.1248,3.126,3.127,3.1284,3.1362,3.1381,3.1176,3.1176,3.1176,0,0,3.0164,3.0228,3.0284,3.0413,3.0471,3.0564,3.0523,3.0623,3.0692,3.069,3.0815,3.0859,3.0943,3.108,3.1142,3.112,3.1345,3.1282,3.129,3.1298,3.1373,3.1393,3.141,3.1182,3.1181,3.118,0,0,3.0295,3.0353,3.0457,3.0516,3.0604,3.0639,3.0664,3.0752,3.0781,3.0906,3.0907,3.0988,3.1144,3.1204,3.1254,3.1406,3.1402,3.1433,3.1499,3.1575,3.1591,3.1606,3.1659,3.1678,3.1446,3.1446,3.1446,0,3.0341,3.0481,3.0511,3.0611,3.0668,3.067,3.0775,3.083,3.0942,3.0981,3.0954,3.1148,3.1205,3.1355,3.1391,3.1433,3.1461,3.1423,3.1586,3.1601,3.1615,3.1667,3.1687,3.1449,3.1449,3.1449,3.1448,0,3.0533,3.063,3.0703,3.0811,3.0876,3.0978,3.1022,3.1084,3.1095,3.1133,3.1259,3.1327,3.1428,3.1465,3.1477,3.1616,3.1599,3.1579,3.1531,3.1637,3.1686,3.1706,3.1454,3.1453,3.1452,3.1451,0,0,3.0686,3.0807,3.0834,3.0882,3.0979,3.1054,3.1155,3.1254,3.1306,3.1382,3.1468,3.1598,3.158,3.1637,3.1655,3.1722,3.1836,3.1693,3.1696,3.1718,3.1993,3.2008,3.203,3.1834,3.1838,3.1841,3.1986,0,3.0827,3.1008,3.1037,3.1195,3.1285,3.1287,3.1375,3.1443,3.1481,3.1561,3.1602,3.1694,3.1663,3.1697,3.1763,3.1809,3.1892,3.1798,3.1913,3.1917,3.1893,3.2056,3.2073,3.2207,3.2005,3.2009,3.2011,0,3.1016,3.1098,3.1265,3.1348,3.1387,3.1466,3.1557,3.1634,3.1711,3.1733,3.1797,3.1807,3.1911,3.1857,3.2,3.1936,3.1984,3.2014,3.2019,3.2032,3.1971,3.2073,3.225,3.227,3.2041,3.2039,3.2037,0,3.1111,3.1262,3.1381,3.1423,3.1523,3.1578,3.1622,3.1695,3.1752,3.1831,3.1868,3.1959,3.2009,3.2079,3.2112,3.207,3.2253,3.2202,3.2274,3.2274,3.2314,3.2311,3.2501,3.2344,3.2344,3.2343,3.2343,0,3.1266,3.1368,3.1425,3.1499,3.1613,3.1644,3.1756,3.1799,3.1863,3.1944,3.1951,3.2027,3.2067,3.2148,3.2175,3.2289,3.2311,3.2332,3.2338,3.2332,3.2329,3.2365,3.2356,3.2349,3.2348,3.2346,3.2346,0,3.1391,3.1433,3.1564,3.1647,3.167,3.1751,3.1822,3.1893,3.1928,3.2031,3.2057,3.2113,3.2209,3.2249,3.2367,3.2385,3.2516,3.2515,3.2491,3.2493,3.2562,3.2555,3.2782,3.2814,3.2635,3.2637,3.2638,0,3.1488,3.1566,3.1658,3.1713,3.1758,3.1847,3.1905,3.1938,3.1998,3.209,3.2149,3.2245,3.2324,3.2477,3.2528,3.2618,3.2619,3.2692,3.2632,3.2623,3.262,3.2615,3.2623,3.2703,3.2705,3.2707,3.2708,0,3.1654,3.1671,3.1754,3.1845,3.1914,3.1987,3.2058,3.2102,3.2146,3.2212,3.2311,3.2372,3.2491,3.2586,3.2679,3.2723,3.2723,3.2726,3.2747,3.2742,3.2725,3.2735,3.2521,3.2721,3.272,3.2719,3.2718,3.2717,3.1769,3.1838,3.1913,3.2005,3.2062,3.2128,3.2198,3.2243,3.2325,3.2426,3.244,3.2545,3.2617,3.2741,3.2789,3.2871,3.2852,3.2883,3.2891,3.2899,3.2903,3.2711,3.2888,3.2887,3.2887,3.2887,3.2887,0,3.1936,3.1983,3.2068,3.2167,3.2239,3.2232,3.231,3.2371,3.2463,3.2531,3.2608,3.272,3.2811,3.2869,3.2961,3.3015,3.3017,3.3038,3.3035,3.3045,3.2915,3.2887,3.3035,3.3035,3.3035,3.3035,3.3035,3.3035,3.2031,3.2148,3.2173,3.2318,3.2365,3.2468,3.2513,3.2573,3.2628,3.2753,3.2829,3.2866,3.2929,3.3026,3.3109,3.3123,3.3157,3.3179,3.3192,3.307,3.3054,3.304,3.3014,3.3186,3.3186,3.3316,3.3317,3.3318]}]]